�������l�o���
Date,Time,MP-1(��Sv/h),MP-2(��Sv/h),MP-3(��Sv/h),MP-4(��Sv/h),MP-5(��Sv/h),MP-6(��Sv/h),MP-7(��Sv/h),MP-8(��Sv/h),����,����(m/s),���J
2021/08/13,00:00,0.580,0.854,0.554,1.050,0.738,0.359,0.617,0.579,�k�k��,7.0,�L
2021/08/13,00:10,0.580,0.856,0.554,1.049,0.739,0.358,0.616,0.580,�k�k��,8.8,�L
2021/08/13,00:20,0.578,0.858,0.553,1.048,0.737,0.357,0.616,0.579,�k�k��,8.0,�L
2021/08/13,00:30,0.577,0.854,0.553,1.049,0.736,0.357,0.615,0.578,�k��,8.4,�L
2021/08/13,00:40,0.579,0.856,0.553,1.049,0.736,0.357,0.615,0.579,�k��,7.4,�L
2021/08/13,00:50,0.579,0.859,0.552,1.046,0.738,0.357,0.615,0.580,�k�k��,8.0,��
2021/08/13,01:00,0.580,0.857,0.553,1.048,0.739,0.358,0.616,0.579,�k�k��,9.1,�L
2021/08/13,01:10,0.578,0.857,0.553,1.047,0.739,0.357,0.616,0.580,�k�k��,8.8,�L
2021/08/13,01:20,0.578,0.856,0.553,1.048,0.738,0.356,0.617,0.580,�k�k��,8.4,�L
2021/08/13,01:30,0.578,0.857,0.554,1.046,0.740,0.355,0.616,0.580,�k�k��,10.2,�L
2021/08/13,01:40,0.578,0.857,0.554,1.048,0.738,0.357,0.617,0.579,�k�k��,9.1,�L
2021/08/13,01:50,0.579,0.856,0.554,1.050,0.740,0.356,0.616,0.580,�k�k��,8.3,�L
2021/08/13,02:00,0.579,0.858,0.554,1.051,0.741,0.355,0.615,0.580,�k�k��,9.1,�L
2021/08/13,02:10,0.581,0.856,0.553,1.049,0.739,0.357,0.615,0.579,�k�k��,9.3,�L
2021/08/13,02:20,0.579,0.858,0.555,1.050,0.739,0.356,0.617,0.579,�k�k��,8.6,�L
2021/08/13,02:30,0.578,0.857,0.552,1.051,0.739,0.357,0.617,0.579,�k�k��,9.4,�L
2021/08/13,02:40,0.579,0.857,0.552,1.051,0.737,0.357,0.617,0.579,�k�k��,9.6,�L
2021/08/13,02:50,0.579,0.856,0.554,1.049,0.737,0.357,0.615,0.578,�k�k��,10.5,�L
2021/08/13,03:00,0.577,0.857,0.552,1.048,0.737,0.358,0.615,0.580,�k�k��,9.5,�L
2021/08/13,03:10,0.578,0.857,0.553,1.049,0.737,0.357,0.615,0.579,�k�k��,9.6,�L
2021/08/13,03:20,0.581,0.859,0.553,1.049,0.736,0.357,0.614,0.579,�k�k��,10.5,�L
2021/08/13,03:30,0.580,0.856,0.552,1.050,0.738,0.357,0.617,0.579,�k�k��,10.0,�L
2021/08/13,03:40,0.578,0.855,0.554,1.050,0.737,0.358,0.618,0.579,�k�k��,8.8,�L
2021/08/13,03:50,0.579,0.855,0.552,1.052,0.736,0.357,0.616,0.579,�k�k��,8.7,�L
2021/08/13,04:00,0.580,0.856,0.554,1.049,0.736,0.359,0.615,0.577,�k��,7.9,�L
2021/08/13,04:10,0.579,0.856,0.555,1.049,0.735,0.358,0.616,0.578,�k�k��,8.8,�L
2021/08/13,04:20,0.580,0.856,0.554,1.049,0.735,0.360,0.615,0.578,�k��,9.1,�L
2021/08/13,04:30,0.578,0.855,0.556,1.050,0.736,0.359,0.616,0.578,�k��,9.6,�L
2021/08/13,04:40,0.579,0.856,0.555,1.050,0.736,0.359,0.615,0.580,�k��,9.7,�L
2021/08/13,04:50,0.582,0.854,0.554,1.048,0.735,0.359,0.615,0.578,�k��,9.8,�L
2021/08/13,05:00,0.580,0.855,0.555,1.051,0.736,0.359,0.616,0.577,�k��,8.6,�L
2021/08/13,05:10,0.579,0.854,0.553,1.049,0.735,0.358,0.617,0.578,�k��,9.2,�L
2021/08/13,05:20,0.579,0.856,0.554,1.049,0.736,0.360,0.615,0.578,�k��,8.6,�L
2021/08/13,05:30,0.579,0.853,0.553,1.050,0.736,0.359,0.615,0.578,�k�k��,8.9,�L
2021/08/13,05:40,0.580,0.855,0.555,1.047,0.736,0.359,0.615,0.578,�k�k��,8.3,�L
2021/08/13,05:50,0.580,0.856,0.555,1.050,0.736,0.358,0.615,0.577,�k�k��,9.0,�L
2021/08/13,06:00,0.578,0.854,0.554,1.049,0.735,0.358,0.617,0.576,�k�k��,8.9,�L
2021/08/13,06:10,0.579,0.855,0.554,1.047,0.738,0.358,0.616,0.579,�k�k��,11.3,�L
2021/08/13,06:20,0.578,0.854,0.554,1.048,0.740,0.357,0.615,0.578,�k�k��,11.3,�L
2021/08/13,06:30,0.578,0.855,0.555,1.052,0.736,0.360,0.615,0.578,�k�k��,8.7,�L
2021/08/13,06:40,0.579,0.854,0.556,1.050,0.737,0.359,0.617,0.580,�k�k��,8.9,�L
2021/08/13,06:50,0.579,0.854,0.555,1.049,0.736,0.358,0.616,0.579,�k�k��,8.8,�L
2021/08/13,07:00,0.579,0.852,0.554,1.048,0.736,0.358,0.615,0.579,�k�k��,7.9,�L
2021/08/13,07:10,0.579,0.855,0.553,1.049,0.736,0.356,0.615,0.580,�k�k��,8.0,�L
2021/08/13,07:20,0.578,0.853,0.553,1.050,0.738,0.357,0.616,0.578,�k�k��,8.1,�L
2021/08/13,07:30,0.578,0.853,0.553,1.050,0.736,0.357,0.615,0.580,�k��,8.6,�L
2021/08/13,07:40,0.579,0.854,0.553,1.047,0.734,0.358,0.615,0.578,�k�k��,8.0,�L
2021/08/13,07:50,0.576,0.852,0.553,1.047,0.731,0.358,0.614,0.577,�k�k��,8.6,�L
2021/08/13,08:00,0.574,0.847,0.551,1.046,0.730,0.356,0.612,0.576,�k��,8.5,�L
2021/08/13,08:10,0.572,0.845,0.550,1.041,0.725,0.356,0.610,0.576,�k��,10.2,�L
2021/08/13,08:20,0.573,0.845,0.551,1.038,0.723,0.356,0.612,0.576,�k��,9.9,�L
2021/08/13,08:30,0.575,0.843,0.552,1.035,0.724,0.356,0.612,0.575,�k��,9.6,�L
2021/08/13,08:40,0.574,0.843,0.551,1.034,0.725,0.357,0.612,0.577,�k��,9.6,�L
2021/08/13,08:50,0.574,0.845,0.553,1.034,0.726,0.357,0.613,0.577,�k��,8.7,�L
2021/08/13,09:00,0.573,0.845,0.550,1.036,0.726,0.356,0.611,0.575,�k��,8.6,�L
2021/08/13,09:10,0.575,0.846,0.552,1.036,0.727,0.358,0.613,0.575,�k��,9.0,�L
2021/08/13,09:20,0.574,0.845,0.552,1.035,0.727,0.357,0.612,0.576,�k�k��,7.5,�L
2021/08/13,09:30,0.574,0.845,0.550,1.037,0.726,0.357,0.614,0.575,�k�k��,6.5,�L
2021/08/13,09:40,0.575,0.845,0.550,1.034,0.728,0.356,0.613,0.576,�k�k��,6.7,�L
2021/08/13,09:50,0.574,0.847,0.553,1.036,0.728,0.357,0.613,0.576,�k�k��,6.5,�L
2021/08/13,10:00,0.573,0.846,0.549,1.036,0.727,0.357,0.611,0.575,�k�k��,7.3,�L
2021/08/13,10:10,0.572,0.847,0.551,1.034,0.726,0.355,0.612,0.576,�k�k��,7.1,�L
2021/08/13,10:20,0.572,0.844,0.550,1.036,0.724,0.356,0.612,0.576,�k�k��,6.9,�L
2021/08/13,10:30,0.573,0.843,0.549,1.035,0.725,0.356,0.613,0.574,�k�k��,7.6,�L
2021/08/13,10:40,0.573,0.842,0.550,1.036,0.725,0.354,0.610,0.575,�k�k��,7.9,�L
2021/08/13,10:50,0.573,0.843,0.549,1.034,0.724,0.356,0.612,0.575,�k�k��,7.6,�L
2021/08/13,11:00,0.573,0.845,0.549,1.035,0.723,0.355,0.611,0.574,�k�k��,7.4,�L
2021/08/13,11:10,0.573,0.842,0.550,1.033,0.724,0.356,0.612,0.575,�k��,6.9,�L
2021/08/13,11:20,0.573,0.844,0.548,1.033,0.723,0.355,0.613,0.574,�k��,6.4,�L
2021/08/13,11:30,0.573,0.843,0.550,1.033,0.724,0.356,0.612,0.575,�k��,6.7,�L
2021/08/13,11:40,0.573,0.842,0.549,1.034,0.725,0.355,0.610,0.576,�k��,6.9,�L
2021/08/13,11:50,0.571,0.843,0.549,1.034,0.723,0.356,0.610,0.574,�k��,7.0,�L
2021/08/13,12:00,0.572,0.844,0.549,1.034,0.724,0.354,0.610,0.576,�k�k��,7.7,�L
2021/08/13,12:10,0.571,0.840,0.549,1.034,0.723,0.354,0.611,0.573,�k��,7.6,�L
2021/08/13,12:20,0.575,0.846,0.548,1.036,0.723,0.355,0.612,0.576,�k�k��,5.5,�L
2021/08/13,12:30,0.571,0.843,0.549,1.035,0.723,0.357,0.610,0.574,�k�k��,5.7,�L
2021/08/13,12:40,0.574,0.845,0.550,1.035,0.726,0.355,0.612,0.574,�k�k��,6.2,�L
2021/08/13,12:50,0.573,0.846,0.550,1.037,0.723,0.356,0.612,0.576,�k�k��,6.7,�L
2021/08/13,13:00,0.573,0.845,0.550,1.033,0.724,0.356,0.610,0.576,�k�k��,6.1,�L
2021/08/13,13:10,0.574,0.845,0.548,1.036,0.724,0.356,0.612,0.576,�k�k��,6.1,�L
2021/08/13,13:20,0.572,0.844,0.549,1.038,0.723,0.355,0.612,0.575,�k��,5.7,�L
2021/08/13,13:30,0.571,0.845,0.549,1.036,0.724,0.354,0.612,0.574,�k�k��,5.5,�L
2021/08/13,13:40,0.573,0.843,0.548,1.035,0.724,0.355,0.612,0.575,�k�k��,5.4,�L
2021/08/13,13:50,0.573,0.845,0.548,1.036,0.723,0.356,0.611,0.576,�k�k��,6.1,�L
2021/08/13,14:00,0.573,0.844,0.547,1.034,0.726,0.354,0.610,0.575,�k�k��,6.1,�L
2021/08/13,14:10,0.570,0.842,0.548,1.033,0.723,0.355,0.611,0.576,�k�k��,5.5,�L
2021/08/13,14:20,0.571,0.844,0.547,1.034,0.722,0.353,0.612,0.574,�k�k��,5.6,�L
2021/08/13,14:30,0.570,0.843,0.547,1.035,0.722,0.354,0.611,0.574,�k�k��,5.6,�L
2021/08/13,14:40,0.569,0.843,0.550,1.035,0.722,0.355,0.610,0.573,�k�k��,6.1,�L
2021/08/13,14:50,0.571,0.846,0.548,1.033,0.722,0.355,0.611,0.574,�k�k��,5.7,�L
2021/08/13,15:00,0.573,0.843,0.549,1.035,0.727,0.355,0.611,0.575,�k�k��,5.4,�L
2021/08/13,15:10,0.573,0.843,0.551,1.037,0.724,0.353,0.611,0.573,�k�k��,4.7,��
2021/08/13,15:20,0.573,0.846,0.549,1.038,0.725,0.356,0.613,0.576,�k�k��,5.6,��
2021/08/13,15:30,0.574,0.846,0.548,1.038,0.724,0.353,0.612,0.576,�k�k��,5.0,��
2021/08/13,15:40,0.574,0.847,0.548,1.037,0.725,0.354,0.611,0.575,�k�k��,4.7,��
2021/08/13,15:50,0.573,0.846,0.548,1.038,0.725,0.355,0.611,0.577,�k�k��,5.7,��
2021/08/13,16:00,0.573,0.847,0.550,1.040,0.724,0.355,0.613,0.575,�k�k��,5.3,�L
2021/08/13,16:10,0.572,0.847,0.548,1.039,0.725,0.354,0.611,0.576,�k�k��,6.0,�L
2021/08/13,16:20,0.574,0.846,0.548,1.038,0.727,0.355,0.613,0.577,�k�k��,6.8,�L
2021/08/13,16:30,0.573,0.846,0.549,1.037,0.726,0.355,0.614,0.576,�k�k��,7.2,�L
2021/08/13,16:40,0.573,0.849,0.551,1.038,0.726,0.354,0.613,0.576,�k�k��,7.1,�L
2021/08/13,16:50,0.574,0.851,0.551,1.039,0.727,0.356,0.612,0.575,�k�k��,5.6,�L
2021/08/13,17:00,0.574,0.849,0.552,1.040,0.729,0.355,0.614,0.577,�k�k��,5.8,�L
2021/08/13,17:10,0.576,0.849,0.550,1.039,0.730,0.355,0.613,0.577,�k�k��,5.6,�L
2021/08/13,17:20,0.574,0.849,0.551,1.041,0.728,0.355,0.613,0.574,�k�k��,5.3,��
2021/08/13,17:30,0.575,0.851,0.552,1.041,0.732,0.356,0.613,0.576,�k�k��,6.0,�L
2021/08/13,17:40,0.573,0.852,0.551,1.043,0.729,0.356,0.613,0.576,�k�k��,5.8,�L
2021/08/13,17:50,0.574,0.850,0.552,1.043,0.733,0.356,0.612,0.576,�k�k��,5.6,�L
2021/08/13,18:00,0.575,0.852,0.552,1.040,0.731,0.357,0.614,0.577,�k�k��,5.1,�L
2021/08/13,18:10,0.575,0.851,0.553,1.042,0.730,0.356,0.612,0.578,�k�k��,5.5,�L
2021/08/13,18:20,0.575,0.853,0.552,1.042,0.732,0.356,0.613,0.577,�k�k��,4.8,�L
2021/08/13,18:30,0.577,0.852,0.553,1.043,0.731,0.356,0.614,0.577,�k�k��,5.6,��
2021/08/13,18:40,0.578,0.853,0.551,1.044,0.731,0.355,0.615,0.577,�k�k��,6.0,�L
2021/08/13,18:50,0.578,0.853,0.553,1.044,0.732,0.356,0.615,0.576,�k�k��,5.0,�L
2021/08/13,19:00,0.579,0.853,0.552,1.042,0.732,0.357,0.613,0.577,�k�k��,5.2,�L
2021/08/13,19:10,0.576,0.855,0.552,1.046,0.733,0.358,0.614,0.578,�k�k��,5.2,�L
2021/08/13,19:20,0.578,0.853,0.555,1.043,0.734,0.357,0.614,0.580,�k�k��,5.0,�L
2021/08/13,19:30,0.578,0.853,0.553,1.045,0.732,0.357,0.613,0.577,�k�k��,4.5,�L
2021/08/13,19:40,0.576,0.853,0.554,1.044,0.732,0.356,0.613,0.579,�k��,4.2,�L
2021/08/13,19:50,0.575,0.852,0.552,1.045,0.731,0.356,0.613,0.577,�k��,4.0,�L
2021/08/13,20:00,0.573,0.849,0.552,1.043,0.729,0.358,0.612,0.578,�k�k��,4.2,�L
2021/08/13,20:10,0.573,0.846,0.550,1.040,0.727,0.355,0.611,0.575,�k�k��,4.8,�L
2021/08/13,20:20,0.569,0.843,0.549,1.036,0.724,0.355,0.610,0.575,�k��,4.2,�L
2021/08/13,20:30,0.567,0.837,0.546,1.031,0.717,0.352,0.608,0.573,�k��,8.1,�L
2021/08/13,20:40,0.563,0.832,0.544,1.025,0.712,0.351,0.606,0.572,�k�k��,5.3,�L
2021/08/13,20:50,0.563,0.830,0.541,1.018,0.713,0.351,0.605,0.570,�k�k��,4.6,�L
2021/08/13,21:00,0.560,0.827,0.541,1.016,0.708,0.349,0.605,0.568,�쓌,5.3,�L
2021/08/13,21:10,0.558,0.824,0.538,1.007,0.702,0.348,0.603,0.569,�k,4.4,�L
2021/08/13,21:20,0.557,0.823,0.540,1.003,0.702,0.348,0.602,0.567,�k��,10.3,�L
2021/08/13,21:30,0.559,0.824,0.539,1.003,0.701,0.348,0.601,0.567,���k��,7.6,�L
2021/08/13,21:40,0.557,0.819,0.540,0.998,0.699,0.348,0.600,0.566,-,CALM,�L
2021/08/13,21:50,0.558,0.820,0.538,1.001,0.697,0.348,0.600,0.568,�k��,4.6,�L
2021/08/13,22:00,0.558,0.824,0.539,1.002,0.699,0.348,0.601,0.567,�k�k��,2.6,�L
2021/08/13,22:10,0.559,0.824,0.539,1.003,0.701,0.350,0.600,0.567,�k�k��,3.5,�L
2021/08/13,22:20,0.560,0.826,0.539,1.004,0.699,0.349,0.602,0.568,�k��,2.3,�L
2021/08/13,22:30,0.561,0.824,0.538,1.003,0.697,0.349,0.601,0.567,�k��,2.0,�L
2021/08/13,22:40,0.556,0.823,0.538,0.997,0.694,0.347,0.598,0.565,�k�k��,4.2,�L
2021/08/13,22:50,0.557,0.821,0.538,0.999,0.694,0.347,0.600,0.565,�k�k��,4.4,�L
2021/08/13,23:00,0.557,0.822,0.536,0.993,0.693,0.348,0.599,0.566,�k�k��,4.6,�L
2021/08/13,23:10,0.557,0.820,0.535,0.994,0.691,0.348,0.598,0.566,�k�k��,5.5,�L
2021/08/13,23:20,0.555,0.818,0.537,0.992,0.689,0.348,0.598,0.564,-,CALM,�L
2021/08/13,23:30,0.555,0.819,0.537,0.990,0.687,0.348,0.599,0.565,�k,5.1,�L
2021/08/13,23:40,0.556,0.820,0.536,0.992,0.686,0.348,0.600,0.564,�k,5.1,�L
2021/08/13,23:50,0.556,0.822,0.538,0.993,0.687,0.351,0.601,0.566,�k,5.3,�L
